Retour au catalogue

SDA_1666

ActifSciencePO
NORAD 65976·PAYLOAD·🇺🇸 United States

Lancé Oct 15, 2025 depuis Vandenberg Space Force Base

Loading…

Prochains Passages (prochaines 24 heures)

TLE

FraisSource: Space-Track

Époque: Sep 14, 2026, 09:09 UTC

1 65976U 25230C   26257.38135864  .00000084  00000-0  67297-4 0  9992
2 65976  81.2992 129.6419 0001314  50.9563 309.1709 13.81922034 46119

Suivez SDA_1666 en temps réel avec AllMySat

Download on the App Store